TSC453 MUSC-CYHZ

Flight info

Callsign TSC453
Flight time N/A
Altitude 35000
Route SELOG6 ZEUSS Y329 ZFP AR23 OZENA AR18 FLRDA DCT IDOLS Y327 SKARP Q101 KALDA Q167 ZJAAY Q97 CCC DCT FOXWD DCT BOS DCT TUSKY PEGGY5
Aircraft A321/M-SDE3FGHIRWY/LB1

Departure

Time 2026-04-13 01:17
Airport Abel Santamaria International Airport (MUSC)

Arrival

Time N/A
Airport Halifax / Stanfield International Airport (CYHZ)
Time Latitude Longitude Altitude Speed Heading
2026-04-13 00:56 22.49005 -79.94353 342 ft 0 kts 156°
2026-04-13 01:09 22.49009 -79.94355 351 ft 3 kts 160°
2026-04-13 01:09 22.49028 -79.94358 353 ft 3 kts 239°
2026-04-13 01:09 22.49033 -79.94332 351 ft 3 kts 262°
2026-04-13 01:09 22.49035 -79.94321 350 ft 0 kts 256°
2026-04-13 01:13 22.49025 -79.94360 353 ft 14 kts 256°
2026-04-13 01:13 22.48994 -79.94495 346 ft 21 kts 256°
2026-04-13 01:13 22.48961 -79.94638 350 ft 21 kts 256°
2026-04-13 01:13 22.48915 -79.94844 346 ft 33 kts 256°
2026-04-13 01:14 22.48857 -79.95094 346 ft 38 kts 256°
2026-04-13 01:14 22.48796 -79.95362 348 ft 31 kts 257°
2026-04-13 01:14 22.48747 -79.95579 352 ft 29 kts 256°
2026-04-13 01:14 22.48704 -79.95772 354 ft 20 kts 256°
2026-04-13 01:15 22.48681 -79.95869 350 ft 7 kts 266°
2026-04-13 01:15 22.48707 -79.95872 352 ft 8 kts 14°
2026-04-13 01:15 22.48804 -79.95809 358 ft 19 kts 32°
2026-04-13 01:15 22.48899 -79.95732 358 ft 15 kts 57°
2026-04-13 01:16 22.48930 -79.95614 356 ft 23 kts 76°
2026-04-13 01:16 22.49023 -79.95219 354 ft 87 kts 76°
2026-04-13 01:16 22.49213 -79.94398 338 ft 138 kts 76°
2026-04-13 01:16 22.49491 -79.93241 418 ft 173 kts 75°
2026-04-13 01:17 22.49777 -79.91959 917 ft 179 kts 75°
2026-04-13 01:17 22.50053 -79.90637 1412 ft 181 kts 75°
2026-04-13 01:17 22.50366 -79.89295 1807 ft 188 kts 75°
2026-04-13 01:17 22.50705 -79.87876 2048 ft 203 kts 75°
2026-04-13 01:18 22.51076 -79.86314 2235 ft 226 kts 76°
2026-04-13 01:18 22.51470 -79.84613 2696 ft 237 kts 76°
2026-04-13 01:18 22.51866 -79.82875 3430 ft 239 kts 76°
2026-04-13 01:18 22.52336 -79.81144 4090 ft 242 kts 64°
2026-04-13 01:19 22.53384 -79.79721 4748 ft 247 kts 39°
2026-04-13 01:19 22.54840 -79.78700 5413 ft 251 kts 34°
2026-04-13 01:19 22.56330 -79.77703 6063 ft 254 kts 34°
2026-04-13 01:19 22.57846 -79.76687 6677 ft 258 kts 33°
2026-04-13 01:20 22.59386 -79.75654 7240 ft 262 kts 33°
2026-04-13 01:20 22.60948 -79.74604 7835 ft 266 kts 33°
2026-04-13 01:20 22.62532 -79.73539 8382 ft 270 kts 33°
2026-04-13 01:20 22.64135 -79.72459 8959 ft 273 kts 33°
2026-04-13 01:21 22.65757 -79.71361 9493 ft 277 kts 33°
2026-04-13 01:21 22.67401 -79.70249 10021 ft 280 kts 34°
2026-04-13 01:21 22.69069 -79.69123 10373 ft 290 kts 33°
2026-04-13 01:21 22.70827 -79.67935 10494 ft 306 kts 33°
2026-04-13 01:22 22.72679 -79.66686 10613 ft 321 kts 33°
2026-04-13 01:22 22.74620 -79.65374 10771 ft 334 kts 33°
2026-04-13 01:22 22.76603 -79.64031 11169 ft 339 kts 33°
2026-04-13 01:22 22.78611 -79.62672 11633 ft 341 kts 34°
2026-04-13 01:23 22.80622 -79.61311 12136 ft 342 kts 33°
2026-04-13 01:23 22.82650 -79.59940 12572 ft 345 kts 33°
2026-04-13 01:23 22.84663 -79.58578 13036 ft 347 kts 33°
2026-04-13 01:23 22.86716 -79.57185 13479 ft 349 kts 33°
2026-04-13 01:24 22.88780 -79.55784 13920 ft 352 kts 33°
2026-04-13 01:24 22.90859 -79.54374 14341 ft 352 kts 33°
2026-04-13 01:24 22.92944 -79.52962 14725 ft 355 kts 33°
2026-04-13 01:24 22.95043 -79.51539 15147 ft 356 kts 33°
2026-04-13 01:25 22.97154 -79.50106 15529 ft 359 kts 33°
2026-04-13 01:25 22.99270 -79.48668 15949 ft 360 kts 33°
2026-04-13 01:25 23.01394 -79.47224 16336 ft 362 kts 33°
2026-04-13 01:25 23.03530 -79.45771 16733 ft 363 kts 33°
2026-04-13 01:26 23.05676 -79.44311 17110 ft 365 kts 33°
2026-04-13 01:26 23.07830 -79.42845 17491 ft 367 kts 33°
2026-04-13 01:26 23.09997 -79.41371 17891 ft 368 kts 33°
2026-04-13 01:26 23.12171 -79.39892 18263 ft 370 kts 33°
2026-04-13 01:27 23.14351 -79.38403 18618 ft 371 kts 33°
2026-04-13 01:27 23.16543 -79.36905 18925 ft 373 kts 32°
2026-04-13 01:27 23.18741 -79.35404 19249 ft 374 kts 32°
2026-04-13 01:27 23.20950 -79.33897 19544 ft 375 kts 32°
2026-04-13 01:28 23.23164 -79.32387 19845 ft 377 kts 32°
2026-04-13 01:28 23.25388 -79.30870 20134 ft 378 kts 32°
2026-04-13 01:28 23.27617 -79.29348 20432 ft 379 kts 32°
2026-04-13 01:28 23.29856 -79.27818 20721 ft 380 kts 32°
2026-04-13 01:29 23.32099 -79.26285 21001 ft 382 kts 32°
2026-04-13 01:29 23.34354 -79.24744 21288 ft 383 kts 32°
2026-04-13 01:29 23.36611 -79.23198 21566 ft 385 kts 32°
2026-04-13 01:29 23.38882 -79.21645 21866 ft 386 kts 31°
2026-04-13 01:30 23.41161 -79.20089 22158 ft 387 kts 31°
2026-04-13 01:30 23.43447 -79.18526 22463 ft 389 kts 31°
2026-04-13 01:30 23.45741 -79.16957 22768 ft 390 kts 31°
2026-04-13 01:30 23.48039 -79.15385 23083 ft 391 kts 31°
2026-04-13 01:31 23.50348 -79.13802 23404 ft 393 kts 31°
2026-04-13 01:31 23.52663 -79.12210 23723 ft 394 kts 31°
2026-04-13 01:31 23.54986 -79.10611 23993 ft 395 kts 31°
2026-04-13 01:31 23.57316 -79.09007 24256 ft 397 kts 31°
2026-04-13 01:32 23.59653 -79.07402 24509 ft 398 kts 31°
2026-04-13 01:32 23.62004 -79.05787 24761 ft 400 kts 31°
2026-04-13 01:32 23.64365 -79.04166 25030 ft 401 kts 31°
2026-04-13 01:32 23.66729 -79.02540 25287 ft 403 kts 31°
2026-04-13 01:33 23.69106 -79.00905 25532 ft 404 kts 31°
2026-04-13 01:33 23.71487 -78.99268 25772 ft 406 kts 31°
2026-04-13 01:33 23.73878 -78.97623 26020 ft 407 kts 31°
2026-04-13 01:33 23.76249 -78.95990 26256 ft 409 kts 31°
2026-04-13 01:34 23.78656 -78.94331 26495 ft 410 kts 30°
2026-04-13 01:34 23.81073 -78.92668 26734 ft 411 kts 30°
2026-04-13 01:34 23.83499 -78.91000 26967 ft 413 kts 30°
2026-04-13 01:34 23.85932 -78.89322 27195 ft 414 kts 30°
2026-04-13 01:35 23.88371 -78.87637 27423 ft 416 kts 31°
2026-04-13 01:35 23.90818 -78.85942 27655 ft 417 kts 31°
2026-04-13 01:35 23.93270 -78.84245 27883 ft 418 kts 30°
2026-04-13 01:35 23.95733 -78.82539 28104 ft 420 kts 30°
2026-04-13 01:36 23.98205 -78.80828 28320 ft 421 kts 31°
2026-04-13 01:36 24.00706 -78.79160 28571 ft 420 kts 25°
2026-04-13 01:36 24.03465 -78.78185 28779 ft 419 kts
2026-04-13 01:36 24.06379 -78.78249 28969 ft 422 kts 351°
2026-04-13 01:37 24.09266 -78.78874 29135 ft 423 kts 354°
2026-04-13 01:37 24.12203 -78.79031 29326 ft 423 kts
2026-04-13 01:37 24.15148 -78.79018 29501 ft 424 kts
2026-04-13 01:37 24.18104 -78.78957 29677 ft 425 kts
2026-04-13 01:38 24.21060 -78.78856 29844 ft 426 kts
2026-04-13 01:38 24.24024 -78.78731 30013 ft 427 kts
2026-04-13 01:38 24.26997 -78.78595 30169 ft 428 kts
2026-04-13 01:38 24.29970 -78.78459 30309 ft 429 kts
2026-04-13 01:39 24.32957 -78.78330 30453 ft 429 kts
2026-04-13 01:39 24.35934 -78.78215 30636 ft 428 kts
2026-04-13 01:39 24.38915 -78.78107 30803 ft 428 kts
2026-04-13 01:39 24.41891 -78.77998 30965 ft 428 kts
2026-04-13 01:40 24.44859 -78.77890 31124 ft 427 kts
2026-04-13 01:40 24.47831 -78.77785 31285 ft 427 kts
2026-04-13 01:40 24.50802 -78.77676 31451 ft 427 kts
2026-04-13 01:40 24.53771 -78.77566 31614 ft 427 kts
2026-04-13 01:41 24.56740 -78.77454 31781 ft 427 kts
2026-04-13 01:41 24.59703 -78.77337 31953 ft 426 kts
2026-04-13 01:41 24.62665 -78.77219 32138 ft 425 kts
2026-04-13 01:41 24.65624 -78.77103 32311 ft 425 kts
2026-04-13 01:42 24.68579 -78.76990 32485 ft 425 kts
2026-04-13 01:42 24.71528 -78.76879 32655 ft 424 kts
2026-04-13 01:42 24.74479 -78.76768 32830 ft 424 kts
2026-04-13 01:43 24.83327 -78.76435 33300 ft 424 kts
2026-04-13 01:43 24.86273 -78.76320 33461 ft 424 kts
2026-04-13 01:43 24.89211 -78.76206 33620 ft 423 kts
2026-04-13 01:44 24.92153 -78.76093 33804 ft 422 kts
2026-04-13 01:44 24.95089 -78.75980 33992 ft 421 kts
2026-04-13 01:44 24.98017 -78.75869 34150 ft 421 kts
2026-04-13 01:44 25.00948 -78.75760 34306 ft 421 kts
2026-04-13 01:45 25.03869 -78.75653 34439 ft 420 kts
2026-04-13 01:45 25.06788 -78.75544 34596 ft 419 kts
2026-04-13 01:45 25.09701 -78.75434 34740 ft 418 kts
2026-04-13 01:45 25.12605 -78.75322 34891 ft 417 kts
2026-04-13 01:46 25.15499 -78.75207 35038 ft 416 kts
2026-04-13 01:46 25.18390 -78.75092 35193 ft 415 kts
2026-04-13 01:46 25.21273 -78.74978 35261 ft 413 kts
2026-04-13 01:47 25.26979 -78.74759 35255 ft 409 kts
2026-04-13 01:47 25.32663 -78.74543 35255 ft 408 kts
2026-04-13 01:48 25.38304 -78.74328 35258 ft 408 kts
2026-04-13 01:48 25.44015 -78.74116 35258 ft 408 kts
2026-04-13 01:49 25.49659 -78.73900 35264 ft 408 kts
2026-04-13 01:49 25.54414 -78.73713 35275 ft 408 kts
2026-04-13 01:50 25.60084 -78.73488 35290 ft 407 kts
2026-04-13 01:50 25.65741 -78.73270 35289 ft 407 kts
2026-04-13 01:51 25.71396 -78.73054 35288 ft 406 kts
2026-04-13 01:51 25.77044 -78.72837 35287 ft 406 kts
2026-04-13 01:52 25.82687 -78.72614 35298 ft 405 kts
2026-04-13 01:52 25.88316 -78.72394 35296 ft 405 kts
2026-04-13 01:53 25.93938 -78.72178 35295 ft 404 kts
2026-04-13 01:53 25.99560 -78.71959 35299 ft 404 kts
2026-04-13 01:54 26.05174 -78.71738 35298 ft 404 kts
2026-04-13 01:54 26.10785 -78.71524 35301 ft 404 kts
2026-04-13 01:55 26.16400 -78.71310 35308 ft 403 kts
2026-04-13 01:55 26.22000 -78.71095 35312 ft 402 kts
2026-04-13 01:56 26.27594 -78.70872 35317 ft 402 kts
2026-04-13 01:56 26.33183 -78.70658 35322 ft 402 kts
2026-04-13 01:57 26.38768 -78.70440 35325 ft 402 kts
2026-04-13 01:57 26.44356 -78.70212 35336 ft 401 kts
2026-04-13 01:58 26.49936 -78.69992 35335 ft 401 kts
2026-04-13 01:58 26.55507 -78.69780 35333 ft 400 kts
2026-04-13 01:59 26.61064 -78.69395 35332 ft 400 kts
2026-04-13 01:59 26.66607 -78.68853 35333 ft 400 kts
2026-04-13 02:00 26.72154 -78.68312 35338 ft 400 kts
2026-04-13 02:00 26.77699 -78.67814 35342 ft 399 kts
2026-04-13 02:01 26.83232 -78.67336 35337 ft 399 kts
2026-04-13 02:01 26.88729 -78.66855 35334 ft 398 kts
2026-04-13 02:02 26.94295 -78.66367 35335 ft 398 kts
2026-04-13 02:02 26.99779 -78.65885 35333 ft 398 kts
2026-04-13 02:03 27.05301 -78.65390 35342 ft 398 kts
2026-04-13 02:03 27.10816 -78.64899 35340 ft 397 kts
2026-04-13 02:04 27.16330 -78.64408 35340 ft 397 kts
2026-04-13 02:04 27.21846 -78.63914 35338 ft 397 kts
2026-04-13 02:05 27.27350 -78.63421 35346 ft 397 kts
2026-04-13 02:05 27.32859 -78.62928 35345 ft 397 kts
2026-04-13 02:06 27.38362 -78.62438 35350 ft 397 kts
2026-04-13 02:06 27.43867 -78.61946 35349 ft 397 kts
2026-04-13 02:07 27.49374 -78.61451 35348 ft 397 kts
2026-04-13 02:07 27.54881 -78.60968 35347 ft 397 kts
2026-04-13 02:08 27.60382 -78.60478 35357 ft 397 kts
2026-04-13 02:08 27.65884 -78.59979 35356 ft 396 kts
2026-04-13 02:09 27.71373 -78.59477 35352 ft 396 kts
2026-04-13 02:09 27.76876 -78.58988 35353 ft 395 kts
2026-04-13 02:10 27.82356 -78.58501 35351 ft 395 kts
2026-04-13 02:10 27.87800 -78.58012 35356 ft 395 kts
2026-04-13 02:11 27.93316 -78.57509 35357 ft 395 kts
2026-04-13 02:11 27.98730 -78.57018 35359 ft 394 kts
2026-04-13 02:12 28.04249 -78.56526 35357 ft 394 kts
2026-04-13 02:12 28.09678 -78.56038 35356 ft 394 kts
2026-04-13 02:13 28.15135 -78.55544 35361 ft 394 kts
2026-04-13 02:13 28.20608 -78.55057 35358 ft 394 kts
2026-04-13 02:14 28.26071 -78.54553 35358 ft 393 kts
2026-04-13 02:14 28.31514 -78.54056 35357 ft 393 kts
2026-04-13 02:15 28.36962 -78.53551 35357 ft 392 kts
2026-04-13 02:15 28.42395 -78.53066 35362 ft 392 kts
2026-04-13 02:16 28.47845 -78.52582 35366 ft 392 kts
2026-04-13 02:16 28.53283 -78.52079 35369 ft 392 kts
2026-04-13 02:17 28.58700 -78.51577 35370 ft 392 kts
2026-04-13 02:17 28.64143 -78.51085 35368 ft 392 kts
2026-04-13 02:18 28.69564 -78.50594 35368 ft 391 kts
2026-04-13 02:18 28.75003 -78.50098 35367 ft 392 kts
2026-04-13 02:19 28.80431 -78.49596 35368 ft 391 kts
2026-04-13 02:19 28.85867 -78.49089 35369 ft 391 kts
2026-04-13 02:20 28.91292 -78.48592 35368 ft 391 kts
2026-04-13 02:20 28.96723 -78.48108 35368 ft 391 kts
2026-04-13 02:21 29.02144 -78.47597 35376 ft 391 kts
2026-04-13 02:21 29.07545 -78.47089 35377 ft 391 kts
2026-04-13 02:22 29.12969 -78.46596 35380 ft 391 kts
2026-04-13 02:22 29.18392 -78.46102 35380 ft 391 kts
2026-04-13 02:23 29.23807 -78.45602 35384 ft 390 kts
2026-04-13 02:23 29.29225 -78.45096 35382 ft 390 kts
2026-04-13 02:24 29.34633 -78.44592 35382 ft 390 kts
2026-04-13 02:24 29.40040 -78.44083 35383 ft 390 kts
2026-04-13 02:25 29.45443 -78.43579 35380 ft 389 kts
2026-04-13 02:25 29.50838 -78.43083 35380 ft 389 kts
2026-04-13 02:26 29.56236 -78.42583 35382 ft 389 kts
2026-04-13 02:26 29.61634 -78.42103 35381 ft 389 kts
2026-04-13 02:27 29.67027 -78.41627 35384 ft 389 kts
2026-04-13 02:27 29.72422 -78.41142 35382 ft 389 kts
2026-04-13 02:28 29.77808 -78.40644 35380 ft 388 kts
2026-04-13 02:28 29.83203 -78.40161 35379 ft 388 kts
2026-04-13 02:29 29.88589 -78.39680 35376 ft 388 kts
2026-04-13 02:29 29.93970 -78.39195 35375 ft 388 kts
2026-04-13 02:30 29.99333 -78.38713 35376 ft 388 kts
2026-04-13 02:30 30.04713 -78.38233 35375 ft 388 kts
2026-04-13 02:31 30.10097 -78.37740 35375 ft 388 kts
2026-04-13 02:31 30.15483 -78.37244 35374 ft 388 kts
2026-04-13 02:32 30.20864 -78.36755 35372 ft 388 kts
2026-04-13 02:32 30.26244 -78.36270 35371 ft 388 kts
2026-04-13 02:33 30.31625 -78.35776 35374 ft 388 kts
2026-04-13 02:33 30.37007 -78.35289 35373 ft 388 kts
2026-04-13 02:34 30.41483 -78.34873 35373 ft 388 kts
2026-04-13 02:34 30.46776 -78.33702 35377 ft 388 kts 11°
2026-04-13 02:35 30.52053 -78.32470 35375 ft 388 kts 11°
2026-04-13 02:35 30.57342 -78.31238 35379 ft 388 kts 11°
2026-04-13 02:36 30.62638 -78.30006 35379 ft 388 kts 11°
2026-04-13 02:36 30.67937 -78.28775 35383 ft 388 kts 11°
2026-04-13 02:37 30.73231 -78.27543 35381 ft 389 kts 11°
2026-04-13 02:37 30.78538 -78.26292 35381 ft 389 kts 11°
2026-04-13 02:38 30.83857 -78.25035 35381 ft 390 kts 11°
2026-04-13 02:38 30.89176 -78.23780 35386 ft 390 kts 11°
2026-04-13 02:39 30.94501 -78.22530 35388 ft 391 kts 11°
2026-04-13 02:39 30.99842 -78.21331 35393 ft 391 kts 10°
2026-04-13 02:40 31.05188 -78.20161 35387 ft 391 kts 10°
2026-04-13 02:40 31.10547 -78.18980 35389 ft 392 kts 10°
2026-04-13 02:41 31.15904 -78.17794 35392 ft 392 kts 10°
2026-04-13 02:41 31.21233 -78.16606 35400 ft 393 kts 10°
2026-04-13 02:42 31.26611 -78.15399 35402 ft 393 kts 10°
2026-04-13 02:42 31.31988 -78.14202 35402 ft 394 kts 10°
2026-04-13 02:43 31.37378 -78.12997 35402 ft 394 kts 10°
2026-04-13 02:43 31.42766 -78.11786 35402 ft 394 kts 10°
2026-04-13 02:44 31.48146 -78.10516 35403 ft 394 kts 11°
2026-04-13 02:44 31.53522 -78.09197 35406 ft 395 kts 11°
2026-04-13 02:45 31.58903 -78.07886 35399 ft 396 kts 10°
2026-04-13 02:45 31.64300 -78.06583 35398 ft 396 kts 10°
2026-04-13 02:46 31.69699 -78.05275 35401 ft 397 kts 10°
2026-04-13 02:46 31.75108 -78.03966 35403 ft 397 kts 10°
2026-04-13 02:47 31.83226 -78.01999 35404 ft 397 kts 10°
2026-04-13 02:47 31.88646 -78.00685 35402 ft 398 kts 10°
2026-04-13 02:48 31.94069 -77.99371 35400 ft 398 kts 10°
2026-04-13 02:48 31.99487 -77.98043 35400 ft 398 kts 10°
2026-04-13 02:49 32.04909 -77.96711 35406 ft 398 kts
2026-04-13 02:49 32.10339 -77.95380 35415 ft 400 kts 10°
2026-04-13 02:50 32.15729 -77.94056 35415 ft 397 kts 10°
2026-04-13 02:50 32.21170 -77.92732 35415 ft 397 kts 10°
2026-04-13 02:51 32.26541 -77.91418 35418 ft 397 kts 10°
2026-04-13 02:51 32.31941 -77.90089 35423 ft 397 kts 10°
2026-04-13 02:52 32.37360 -77.88755 35419 ft 397 kts 10°
2026-04-13 02:52 32.42778 -77.87421 35417 ft 398 kts 10°
2026-04-13 02:53 32.48193 -77.86086 35416 ft 398 kts 10°
2026-04-13 02:53 32.53610 -77.84741 35416 ft 398 kts 10°
2026-04-13 02:54 32.59032 -77.83392 35410 ft 398 kts
2026-04-13 02:54 32.64460 -77.82055 35408 ft 399 kts
2026-04-13 02:55 32.69901 -77.80712 35405 ft 399 kts
2026-04-13 02:55 32.75311 -77.79365 35415 ft 400 kts
2026-04-13 02:56 32.80761 -77.78007 35420 ft 400 kts
2026-04-13 02:56 32.86218 -77.76660 35422 ft 401 kts
2026-04-13 02:57 32.91671 -77.75304 35424 ft 401 kts
2026-04-13 02:57 32.97134 -77.73939 35427 ft 401 kts
2026-04-13 02:58 33.02598 -77.72579 35430 ft 401 kts
2026-04-13 02:58 33.08069 -77.71216 35437 ft 402 kts
2026-04-13 02:59 33.13543 -77.69844 35430 ft 403 kts
2026-04-13 02:59 33.19032 -77.68468 35430 ft 403 kts
2026-04-13 03:00 33.24528 -77.67088 35430 ft 404 kts
2026-04-13 03:00 33.30025 -77.65703 35433 ft 404 kts
2026-04-13 03:01 33.35526 -77.64321 35441 ft 404 kts
2026-04-13 03:01 33.41026 -77.62937 35438 ft 404 kts
2026-04-13 03:02 33.46536 -77.61545 35435 ft 405 kts
2026-04-13 03:02 33.52058 -77.60141 35433 ft 405 kts
2026-04-13 03:03 33.57573 -77.58742 35442 ft 405 kts
2026-04-13 03:03 33.63068 -77.57540 35450 ft 403 kts
2026-04-13 03:04 33.68607 -77.56539 35441 ft 402 kts
2026-04-13 03:04 33.74140 -77.55532 35441 ft 402 kts
2026-04-13 03:05 33.79668 -77.54478 35439 ft 402 kts
2026-04-13 03:05 33.85184 -77.53410 35445 ft 402 kts
2026-04-13 03:06 33.90706 -77.52336 35427 ft 402 kts
2026-04-13 03:06 33.96225 -77.51261 35423 ft 402 kts
2026-04-13 03:07 34.01752 -77.50185 35416 ft 402 kts
2026-04-13 03:07 34.07281 -77.49106 35424 ft 402 kts
2026-04-13 03:08 34.12775 -77.48038 35427 ft 403 kts
2026-04-13 03:08 34.18313 -77.46971 35428 ft 403 kts
2026-04-13 03:09 34.23852 -77.45892 35419 ft 403 kts
2026-04-13 03:09 34.29397 -77.44808 35418 ft 404 kts
2026-04-13 03:10 34.34945 -77.43726 35430 ft 404 kts
2026-04-13 03:10 34.40499 -77.42637 35421 ft 405 kts
2026-04-13 03:11 34.46050 -77.41551 35421 ft 405 kts
2026-04-13 03:11 34.51401 -77.39341 35419 ft 415 kts 22°
2026-04-13 03:12 34.56537 -77.36156 35421 ft 415 kts 22°
2026-04-13 03:12 34.61692 -77.32984 35429 ft 416 kts 22°
2026-04-13 03:13 34.66855 -77.29804 35427 ft 416 kts 22°
2026-04-13 03:13 34.72023 -77.26604 35429 ft 417 kts 22°
2026-04-13 03:14 34.77196 -77.23402 35434 ft 417 kts 22°
2026-04-13 03:14 34.82364 -77.20194 35472 ft 417 kts 22°
2026-04-13 03:15 34.87527 -77.16986 35467 ft 416 kts 22°
2026-04-13 03:15 34.92679 -77.13776 35463 ft 416 kts 22°
2026-04-13 03:16 34.97821 -77.10570 35458 ft 415 kts 22°
2026-04-13 03:16 35.02962 -77.07358 35457 ft 415 kts 22°
2026-04-13 03:17 35.08093 -77.04158 35457 ft 415 kts 21°
2026-04-13 03:17 35.13242 -77.00940 35444 ft 415 kts 21°
2026-04-13 03:18 35.18386 -76.97706 35429 ft 416 kts 22°
2026-04-13 03:18 35.23537 -76.94465 35423 ft 416 kts 21°
2026-04-13 03:19 35.28704 -76.91282 35428 ft 416 kts 21°
2026-04-13 03:19 35.33890 -76.88149 35424 ft 416 kts 21°
2026-04-13 03:20 35.39079 -76.85012 35434 ft 416 kts 21°
2026-04-13 03:20 35.44249 -76.81863 35442 ft 414 kts 21°
2026-04-13 03:21 35.49406 -76.78704 35446 ft 413 kts 21°
2026-04-13 03:21 35.54547 -76.75555 35452 ft 413 kts 21°
2026-04-13 03:22 35.58828 -76.72927 35443 ft 414 kts 21°
2026-04-13 03:22 35.63983 -76.69763 35432 ft 414 kts 21°
2026-04-13 03:23 35.69981 -76.66077 35425 ft 415 kts 21°
2026-04-13 03:23 35.75147 -76.62899 35434 ft 415 kts 21°
2026-04-13 03:24 35.79477 -76.60230 35428 ft 416 kts 21°
2026-04-13 03:24 35.84646 -76.57040 35431 ft 416 kts 21°
2026-04-13 03:25 35.89790 -76.53854 35436 ft 417 kts 21°
2026-04-13 03:25 35.94919 -76.50488 35435 ft 418 kts 23°
2026-04-13 03:26 35.99521 -76.47329 35464 ft 418 kts 23°
2026-04-13 03:26 36.04600 -76.43853 35446 ft 417 kts 22°
2026-04-13 03:27 36.09685 -76.40418 35441 ft 416 kts 22°
2026-04-13 03:27 36.14768 -76.36986 35440 ft 416 kts 22°
2026-04-13 03:28 36.19846 -76.33553 35435 ft 416 kts 22°
2026-04-13 03:28 36.24913 -76.30111 35440 ft 416 kts 22°
2026-04-13 03:29 36.29986 -76.26654 35434 ft 416 kts 22°
2026-04-13 03:29 36.35061 -76.23195 35431 ft 416 kts 22°
2026-04-13 03:30 36.40123 -76.19750 35429 ft 417 kts 22°
2026-04-13 03:30 36.45224 -76.16276 35436 ft 417 kts 22°
2026-04-13 03:31 36.50322 -76.12794 35439 ft 418 kts 22°
2026-04-13 03:31 36.55405 -76.09304 35442 ft 416 kts 22°
2026-04-13 03:32 36.60465 -76.05821 35424 ft 415 kts 22°
2026-04-13 03:32 36.65521 -76.02352 35433 ft 415 kts 22°
2026-04-13 03:33 36.70550 -75.98896 35414 ft 415 kts 22°
2026-04-13 03:33 36.75611 -75.95407 35400 ft 416 kts 22°
2026-04-13 03:34 36.80674 -75.91917 35409 ft 416 kts 22°
2026-04-13 03:34 36.85751 -75.88408 35410 ft 417 kts 22°
2026-04-13 03:35 36.90828 -75.84893 35412 ft 417 kts 22°
2026-04-13 03:35 36.95924 -75.81359 35407 ft 418 kts 22°
2026-04-13 03:36 37.01004 -75.77833 35421 ft 419 kts 22°
2026-04-13 03:36 37.06188 -75.74655 35426 ft 408 kts 11°
2026-04-13 03:37 37.11653 -75.73272 35431 ft 401 kts
2026-04-13 03:37 37.17150 -75.72097 35422 ft 401 kts
2026-04-13 03:38 37.22656 -75.70917 35417 ft 401 kts
2026-04-13 03:38 37.28152 -75.69740 35413 ft 400 kts
2026-04-13 03:39 37.33643 -75.68560 35412 ft 401 kts
2026-04-13 03:39 37.39110 -75.67388 35395 ft 401 kts
2026-04-13 03:40 37.44649 -75.66196 35386 ft 402 kts
2026-04-13 03:40 37.50126 -75.65013 35381 ft 402 kts
2026-04-13 03:41 37.55638 -75.63820 35374 ft 402 kts
2026-04-13 03:41 37.61150 -75.62629 35375 ft 402 kts
2026-04-13 03:42 37.66663 -75.61439 35377 ft 402 kts
2026-04-13 03:43 37.74867 -75.61682 35374 ft 392 kts 351°
2026-04-13 03:43 37.80317 -75.62201 35394 ft 395 kts 355°
2026-04-13 03:44 37.85792 -75.60843 35383 ft 413 kts 17°
2026-04-13 03:44 37.88342 -75.59062 35404 ft 426 kts 27°
2026-04-13 03:44 37.90795 -75.56917 35405 ft 431 kts 27°
2026-04-13 03:45 37.95786 -75.52570 35407 ft 440 kts 27°
2026-04-13 03:45 38.00877 -75.48155 35393 ft 446 kts 27°
2026-04-13 03:46 38.06014 -75.43669 35390 ft 450 kts 27°
2026-04-13 03:46 38.11056 -75.38993 35389 ft 447 kts 30°
2026-04-13 03:47 38.16009 -75.34235 35382 ft 446 kts 30°
2026-04-13 03:47 38.20968 -75.29494 35398 ft 446 kts 29°
2026-04-13 03:48 38.25950 -75.24778 35381 ft 447 kts 29°
2026-04-13 03:48 38.30945 -75.20069 35380 ft 447 kts 29°
2026-04-13 03:49 38.35942 -75.15345 35401 ft 448 kts 29°
2026-04-13 03:49 38.40935 -75.10591 35400 ft 449 kts 29°
2026-04-13 03:50 38.45942 -75.05812 35407 ft 450 kts 29°
2026-04-13 03:50 38.50805 -75.00809 35414 ft 454 kts 33°
2026-04-13 03:51 38.55539 -74.95467 35410 ft 454 kts 33°
2026-04-13 03:51 38.60365 -74.90301 35424 ft 451 kts 31°
2026-04-13 03:52 38.67748 -74.82730 35416 ft 452 kts 31°
2026-04-13 03:52 38.72608 -74.77712 35411 ft 452 kts 31°
2026-04-13 03:53 38.77450 -74.72550 35411 ft 455 kts 33°
2026-04-13 03:53 38.82138 -74.67050 35418 ft 458 kts 35°
2026-04-13 03:54 38.86780 -74.61456 35414 ft 458 kts 34°
2026-04-13 03:54 38.91469 -74.55912 35410 ft 458 kts 34°
2026-04-13 03:55 38.96205 -74.50452 35410 ft 456 kts 32°
2026-04-13 03:55 39.01065 -74.45237 35418 ft 455 kts 31°
2026-04-13 03:56 39.05965 -74.40071 35419 ft 455 kts 31°
2026-04-13 03:56 39.10838 -74.34856 35425 ft 456 kts 32°
2026-04-13 03:57 39.15676 -74.29601 35424 ft 455 kts 32°
2026-04-13 03:57 39.20501 -74.24344 35434 ft 454 kts 32°
2026-04-13 03:58 39.25326 -74.19097 35425 ft 453 kts 32°
2026-04-13 03:58 39.30151 -74.13847 35422 ft 454 kts 32°
2026-04-13 03:59 39.34964 -74.08581 35419 ft 454 kts 32°
2026-04-13 03:59 39.39801 -74.03344 35416 ft 450 kts 28°
2026-04-13 04:00 39.42413 -74.01203 35409 ft 439 kts 18°
2026-04-13 04:00 39.45180 -73.99630 35415 ft 433 kts 14°
2026-04-13 04:00 39.50766 -73.96722 35417 ft 433 kts 14°
2026-04-13 04:01 39.56339 -73.93783 35416 ft 432 kts 14°
2026-04-13 04:01 39.61898 -73.90834 35413 ft 432 kts 14°
2026-04-13 04:02 39.67461 -73.87885 35411 ft 432 kts 14°
2026-04-13 04:02 39.73018 -73.84927 35409 ft 431 kts 14°
2026-04-13 04:03 39.78571 -73.81973 35419 ft 431 kts 14°
2026-04-13 04:03 39.84124 -73.79023 35416 ft 432 kts 14°
2026-04-13 04:04 39.89691 -73.76062 35401 ft 432 kts 14°
2026-04-13 04:04 39.95252 -73.73066 35400 ft 435 kts 17°
2026-04-13 04:05 39.97903 -73.71080 35416 ft 446 kts 26°
2026-04-13 04:05 40.00434 -73.68701 35405 ft 448 kts 27°
2026-04-13 04:05 40.05486 -73.63922 35410 ft 448 kts 27°
2026-04-13 04:06 40.10526 -73.59163 35415 ft 447 kts 27°
2026-04-13 04:06 40.15529 -73.54453 35422 ft 446 kts 27°
2026-04-13 04:07 40.20555 -73.49706 35430 ft 446 kts 27°
2026-04-13 04:07 40.25571 -73.44945 35424 ft 446 kts 27°
2026-04-13 04:08 40.30594 -73.40155 35418 ft 447 kts 27°
2026-04-13 04:08 40.34796 -73.36125 35419 ft 447 kts 27°
2026-04-13 04:09 40.39814 -73.31325 35433 ft 447 kts 27°
2026-04-13 04:09 40.44835 -73.26514 35430 ft 446 kts 27°
2026-04-13 04:10 40.49804 -73.21733 35422 ft 445 kts 27°
2026-04-13 04:10 40.54823 -73.16896 35430 ft 444 kts 27°
2026-04-13 04:11 40.59797 -73.12090 35425 ft 444 kts 27°
2026-04-13 04:11 40.64775 -73.07287 35421 ft 443 kts 27°
2026-04-13 04:12 40.69738 -73.02487 35417 ft 443 kts 27°
2026-04-13 04:12 40.74059 -72.98296 35432 ft 444 kts 27°
2026-04-13 04:13 40.79032 -72.93466 35435 ft 444 kts 27°
2026-04-13 04:13 40.84001 -72.88636 35432 ft 443 kts 27°
2026-04-13 04:14 40.88960 -72.83795 35430 ft 443 kts 27°
2026-04-13 04:14 40.93903 -72.78921 35437 ft 445 kts 28°
2026-04-13 04:15 40.98704 -72.73708 35439 ft 449 kts 31°
2026-04-13 04:15 41.03404 -72.68282 35435 ft 449 kts 31°
2026-04-13 04:16 41.08111 -72.62869 35452 ft 449 kts 30°
2026-04-13 04:16 41.12867 -72.57519 35438 ft 448 kts 30°
2026-04-13 04:17 41.17629 -72.52194 35418 ft 447 kts 30°
2026-04-13 04:17 41.22367 -72.46854 35411 ft 447 kts 30°
2026-04-13 04:18 41.27096 -72.41498 35431 ft 446 kts 30°
2026-04-13 04:18 41.31819 -72.36145 35421 ft 446 kts 30°
2026-04-13 04:19 41.36527 -72.30790 35415 ft 446 kts 30°
2026-04-13 04:19 41.41249 -72.25414 35421 ft 446 kts 30°
2026-04-13 04:20 41.45965 -72.20035 35421 ft 446 kts 30°
2026-04-13 04:20 41.50677 -72.14664 35418 ft 446 kts 30°
2026-04-13 04:21 41.55392 -72.09270 35415 ft 446 kts 30°
2026-04-13 04:21 41.60102 -72.03854 35449 ft 447 kts 30°
2026-04-13 04:22 41.64816 -71.98444 35411 ft 449 kts 31°
2026-04-13 04:22 41.69589 -71.92952 35401 ft 450 kts 31°
2026-04-13 04:23 41.74302 -71.87496 35405 ft 451 kts 31°